Flag for India Weather past 2 weeks in Domkal, West Bengal, India

Now
81 °F

Fog.


Feels Like: 88 °F
Forecast: 79 / 90 °F
Wind: No wind

Location: Calcutta / Dum Dum

Current Time: Jul 25, 2014 at 4:33:29 AM

Latest Report: Jul 25, 2014 at 3:50 AM


Visibility: 1 mi

Pressure: 29.53 "Hg

Humidity: 94%

Dew point: 79 °F

Location of DomkalLocation

Historic Weather in Domkal — Graph

°F

Domkal temperature yesterday

Maximum temperature yesterday: 88 °F (at 9:50 AM)
Minimum temperature yesterday: 81 °F (at 2:20 AM)
Average temperature yesterday: 82 °F

Past Weeks' High & Low Weather Summary

 TemperatureHumidityPressure
High95 °F (Jul 11, 1:50 PM)94% (Jul 10, 1:50 PM)29.59 "Hg (Jul 10, 1:50 PM)
Low79 °F (Jul 22, 2:20 AM)63% (Jul 11, 1:50 PM)29.21 "Hg (Jul 21, 3:20 AM)
Average85 °F87%29.45 "Hg
* Reported Jul 10 2:50 AM — Jul 25 3:20 AM, Domkal, Weather by CustomWeather, © 2014

Note: Actual official high and low records may vary slightly from our data, if they occured in-between our weather recording intervals... More about our weather records

Advertising

Domkal weather history for previous 24 hours

 ConditionsComfort  
Time TempWeatherWind HumidityBarometerVisibility
3:20 AM
Jul 25
81 °FFog.No wind94%29.53 "Hg1 mi
2:50 AM81 °FFog.No wind94%29.53 "Hg1 mi
2:20 AM81 °FFog.No wind94%29.53 "Hg1 mi
1:50 AM81 °FFog.No wind94%29.53 "Hg1 mi
1:20 AM81 °FFog.No wind94%29.53 "Hg1 mi
12:50 AM81 °FFog.No wind94%29.56 "Hg1 mi
12:20 AM81 °FPartly cloudy.No wind94%29.56 "Hg1 mi
11:50 PM
Jul 24
81 °FPartly cloudy.No wind94%29.56 "Hg1 mi
11:20 PM81 °FPartly cloudy.No wind94%29.56 "Hg1 mi
10:50 PM81 °FPartly cloudy.No wind94%29.56 "Hg1 mi
10:20 PM81 °FPartly cloudy.No wind94%29.59 "Hg1 mi
9:50 PM81 °FPartly cloudy.No wind94%29.59 "Hg1 mi
9:20 PM81 °FPartly cloudy.No wind94%29.59 "Hg1 mi
8:50 PM81 °FPartly cloudy.No wind94%29.56 "Hg1 mi
8:20 PM81 °FPartly cloudy.No wind94%29.56 "Hg1 mi
7:50 PM81 °FPartly cloudy.No wind94%29.56 "Hg2 mi
7:20 PM81 °FPartly cloudy.No wind94%29.53 "Hg2 mi
6:50 PM81 °FLight rain. Broken clouds.3 mph94%29.53 "Hg2 mi
6:20 PM81 °FLight rain. Broken clouds.3 mph94%29.50 "Hg2 mi
5:50 PM81 °FLight rain. Broken clouds.3 mph94%29.50 "Hg2 mi
5:20 PM81 °FBroken clouds.3 mph94%29.50 "Hg2 mi
4:50 PM81 °FBroken clouds.3 mph94%29.50 "Hg2 mi
4:20 PM81 °FBroken clouds.5 mph94%29.50 "Hg2 mi
3:50 PM81 °FLight rain. Broken clouds.7 mph94%29.50 "Hg1 mi
3:20 PM81 °FLight rain. Broken clouds.6 mph94%29.50 "Hg1 mi
2:50 PM82 °FThunderstorms. Broken clouds.7 mph94%29.53 "Hg1 mi
2:20 PM82 °FThunderstorms. Broken clouds.7 mph94%29.50 "Hg2 mi
1:50 PM82 °FLight rain. Broken clouds.6 mph94%29.50 "Hg2 mi
1:20 PM82 °FLight rain. Broken clouds.6 mph94%29.53 "Hg2 mi
12:50 PM82 °FThunderstorms. Broken clouds.6 mph94%29.50 "Hg2 mi
12:20 PM84 °FWarm.6 mph94%29.53 "Hg1 mi
11:50 AM84 °FLight rain. Broken clouds.8 mph94%29.53 "Hg2 mi
11:20 AM84 °FLight rain. Broken clouds.8 mph94%29.56 "Hg2 mi
9:50 AM88 °FBroken clouds.3 mph79%29.56 "Hg2 mi
9:20 AM86 °FBroken clouds.3 mph84%29.56 "Hg2 mi
8:50 AM86 °FBroken clouds.No wind84%29.56 "Hg2 mi
8:20 AM86 °FBroken clouds.No wind84%29.56 "Hg2 mi
7:50 AM84 °FBroken clouds.No wind84%29.56 "Hg2 mi
7:20 AM82 °FFog.3 mph94%29.56 "Hg1 mi
6:50 AM82 °FFog.No wind94%29.53 "Hg1 mi
6:20 AM82 °FFog.No wind94%29.53 "Hg1 mi
5:50 AM81 °FFog.No wind94%29.53 "Hg1 mi
5:20 AM81 °FFog.No wind94%29.56 "Hg1 mi
4:50 AM81 °FPartly cloudy.No wind94%29.53 "Hg2 mi
4:20 AM81 °FPassing clouds.No wind94%29.50 "Hg2 mi
Weather by CustomWeather, © 2014

See weather overviewHow to use our weather pages